{"data":{"norad_id":62867,"epoch":"2026-05-25T02:56:12.924384Z","epoch_age_seconds":78560,"freshness":"FRESH","line1":"1 62867U 25022P   26145.12237181  .00008638  00000+0  30342-3 0  9992","line2":"2 62867  53.1574 134.4841 0001059  72.3002 287.8114 15.30201322 73606","mean_motion":15.30201322,"eccentricity":0.0001059,"inclination_deg":53.1574,"raan_deg":134.4841,"arg_perigee_deg":72.3002,"mean_anomaly_deg":287.8114,"bstar":0.00030342,"rev_number":7360,"period_min":94.105264405202,"perigee_km":474.48535260232,"apogee_km":475.9368917346,"semimajor_km":6853.3481221685,"source":"CELESTRAK","updated_at":"2026-05-25T13:38:19.785829Z"}}